sat.trackr.live / text

‹ back to catalog

CALSPHERE 1

NORAD 900 · 1964-063C

PAYLOAD ACTIVE UNKNOWN

§ Identity

Operator
Country
US
Launch date
1964-10-06
Launch site
AFWTR
Launch vehicle
Mass (kg)
RCS (m²)
0.05

Purposes: military

External: N2YO · Heavens-Above · Gunter

§ Orbital elements

Epoch: 2026-09-20T04:12:27.527904Z

Period
104.60 min
Inclination
90.2179°
Eccentricity
0.0026099
Mean motion
13.76708315 rev/d
Perigee alt
956.4 km
Apogee alt
994.8 km
Semi-major
7,353.7 km
B*
4.2837e-4
RAAN
73.9688°
Arg perigee
9.2904°
Mean anomaly
109.6118°
Rev number
8,449

§ Raw data

CALSPHERE 11 00900U 64063C   26263.17531861  .00000431  00000+0  42837-3 0  99932 00900  90.2179  73.9688 0026099   9.2904 109.6118 13.76708315 84492

JSON: /api/v1/satellites/900 · /tle

For live sub-satellite position, see the globe view (requires WebGL).

§ Visibility from observer

Set your observer location to see the next 7 days of passes ≥ 10°. The values pass through the URL so the page stays shareable.

No JS? Fill the form by hand. The geolocation button needs JavaScript.